Location: *
(11.6250°N, 78.1650°E)
Time: 23:43:30
(UTC+00:00)

Daily predictions for brighter satellites

Satellite Brightness Start Highest point End
(mag) Time Altitude Azimuth Time Altitude Azimuth Time Altitude Azimuth
Cosmos 1703 4.3 12:42:12 10° NNE 12:45:25 24° E 12:48:39 10° SE
FALCON 9 DEB 3.0 12:42:43 10° SW 12:45:56 83° NW 12:49:08 10° NNE
Atlas Centaur 2 3.2 12:37:26 10° SW 12:45:56 81° SSE 12:54:12 10° ENE
Okean-O 4.3 12:44:10 10° ESE 12:46:25 14° ENE 12:48:40 10° NE
Cosmos 676 Rocket 4.4 12:45:37 10° N 12:50:28 40° ENE 12:55:21 10° SE
COSMO-SKYMED 1 3.5 12:51:32 10° N 12:55:44 52° WNW 12:59:57 10° SSW
CZ-2C R/B 4.4 12:55:15 10° ENE 12:57:07 12° E 12:58:57 10° ESE
Meteor 1-21 Rocket 4.3 12:51:41 10° N 12:57:35 82° E 13:03:23 10° S
YAOGAN 1 4.2 12:56:33 10° ESE 12:58:53 14° ENE 13:01:14 10° NE
ATLAS CENTAUR R/B 1.6 12:57:20 10° NNW 13:01:13 70° WSW 13:05:20 10° SSE
CZ-3A R/B 3.1 12:45:27 10° WSW 13:01:22 77° SSE 13:04:32 13° ENE
Cosmos 1300 2.6 13:01:20 10° S 13:05:05 61° E 13:08:50 10° NNE
Cosmos 2266 Rocket 4.0 13:01:04 10° N 13:07:17 68° E 13:13:36 10° SSE
Cosmos 2098 Rocket 2.9 13:04:43 10° NNW 13:07:32 52° W 13:10:23 10° S
Milstar 3 Cent rocket 3.8 12:51:50 10° WNW 13:09:16 79° NNE 13:16:45 11° ESE
Cosmos 1400 Rocket 3.4 13:06:18 10° SSE 13:10:03 35° E 13:13:50 10° NNE
Cosmos 1328 4.0 13:08:22 10° NNE 13:12:09 45° E 13:15:56 10° SSE
X-37B 1.9 13:10:40 10° N 13:13:13 22° NE 13:13:55 20° ENE
Cosmos 1726 Rocket 3.5 13:12:08 10° S 13:16:26 86° W 13:20:45 10° N
GPS 2-12 Rocket1 4.3 13:12:55 10° WNW 13:16:46 28° N 13:19:32 16° NE
Cosmos 1825 Rocket 4.2 13:12:54 10° NNE 13:16:53 33° E 13:20:51 10° SSE
Meteor 2-21 4.4 13:17:30 10° N 13:23:32 60° E 13:29:30 10° SSE
Meteor 2-14 Rocket 4.5 13:17:48 10° N 13:23:47 56° E 13:29:43 10° SSE
Helios 1A Rocket 2.9 13:22:08 10° SSE 13:26:12 58° ENE 13:30:15 10° N
Orbus 7S 2.7 13:28:40 10° WSW 13:31:11 78° NNW 13:32:27 34° ENE
Cosmos 1758 Rocket 3.4 13:27:38 10° N 13:32:00 81° E 13:36:19 10° S
GPS 2-04 Rocket1 3.5 13:28:40 10° SSW 13:32:29 37° SE 13:33:29 32° ESE
Cosmos 1417 Rocket 4.5 13:29:28 10° SSE 13:35:27 55° E 13:41:29 10° NNE
Aureole 3 Rocket 2.3 13:33:11 10° S 13:36:12 72° W 13:39:17 10° N
Cosmos 1833 4.1 13:35:12 10° NNW 13:40:55 81° ENE 13:46:36 10° SSE
Cosmos 2058 Rocket 3.6 13:41:45 10° SSW 13:46:05 60° W 13:50:27 10° N
NOSS 3-3 (A) 3.6 13:44:28 10° SSW 13:49:55 66° ESE 13:52:11 36° NE
NOSS 3-3 (C) 3.6 13:44:29 10° SSW 13:50:01 66° ESE 13:52:21 35° NE
SWIFT 3.8 13:46:36 10° NW 13:50:03 23° N 13:50:25 23° N
USA 229 DEB 4.0 13:42:53 10° NNW 13:50:24 59° ENE 13:58:01 10° SE
USA 229 4.0 13:43:00 10° NNW 13:50:30 58° ENE 13:58:00 10° SE
Aureole 1 Rocket 3.8 13:47:50 10° NNW 13:50:50 39° WSW 13:54:23 10° S
Cosmos 1553 Rocket 4.1 13:48:32 10° S 13:54:57 81° W 14:01:20 10° N
Meteor 2-16 Rocket 4.3 13:49:10 10° N 13:55:13 72° E 14:01:17 10° S
Ariane H10+ 3.9 13:50:23 10° WSW 13:56:00 51° S 14:04:56 25° ESE
Cosmos 1375 Rocket 4.4 13:51:33 10° NNW 13:57:55 89° E 14:04:12 10° SSE
CRYOSAT 2 4.2 13:55:32 10° N 14:00:23 83° E 14:05:15 10° S
ASTRO E2 4.1 13:57:26 10° W 14:00:54 29° NNW 14:01:12 28° NNW
NOSS 3-1 (A) 4.3 13:55:35 10° NNW 14:04:02 60° ENE 14:09:55 23° SE
CZ-4 R/B 2.3 14:00:21 10° S 14:04:17 47° W 14:08:08 10° NNW
Ariane H10-3 4.3 14:06:54 10° SW 14:10:01 24° SSE 14:10:57 23° SSE
H-2A R/B 2.6 14:07:11 10° SSE 14:13:58 46° N 14:17:40 10° N
Cosmos 1953 Rocket 3.9 14:08:44 10° NNW 14:13:05 64° W 14:17:29 10° S
CSL-04 Rocket 3.6 14:13:26 10° SSE 14:18:57 89° WSW 14:24:30 10° NNW
Cosmos 1741 Rocket 4.4 14:17:09 10° NNW 14:22:17 62° WSW 14:24:45 30° S
Cosmos 1697 Rocket 2.7 14:18:18 10° SSW 14:23:46 78° W 14:23:46 78° W
CZ-3B R/B 4.5 14:13:18 10° SSW 14:25:39 33° SSE 14:25:39 33° SSE
Atlas Centaur 2 3.7 14:28:17 10° W 14:36:05 40° NNW 14:37:36 37° N
CZ-2C R/B 3.5 14:35:51 37° NW 14:37:19 46° WNW 14:42:24 10° SSW
Cosmos 1980 Rocket 4.3 14:37:28 10° S 14:38:33 16° S 14:38:33 16° S
Centaur D-1AR AC-48 4.0 22:05:56 31° NNE 22:05:56 31° NNE 22:14:19 10° ENE
Cosmos 2369 Rocket 3.9 22:07:35 27° SE 22:07:35 27° SE 22:10:16 10° SSE
CZ-3 R/B 4.2 21:13:32 10° WSW 22:11:34 69° NNW 22:23:49 10° NE
CENTAUR R/B 3.7 22:29:09 26° NNE 22:29:09 26° NNE 22:31:41 10° NNE
ISS -0.4 22:33:24 12° ENE 22:33:24 12° ENE 22:33:46 10° ENE
Lacrosse 5 rocket 3.7 22:34:24 18° ESE 22:34:24 18° ESE 22:36:20 10° ENE
ARIANE 5 R/B 4.4 22:36:22 33° SSW 22:36:37 33° SSW 22:40:40 10° SE
OAO 2 Rocket 4.5 22:38:38 36° SSE 22:38:38 36° SSE 22:41:55 10° SE
Lacrosse 4 Rocket 2.4 22:47:35 44° ESE 22:47:46 44° ESE 22:51:38 10° NE
Ariane H10 3.8 22:49:48 40° S 22:50:34 44° SSE 23:03:00 10° E
Cosmos 1484 Rocket 3.8 22:50:16 10° NNE 22:53:54 43° E 22:57:28 10° S
GP-B 3.8 22:51:25 10° SSE 22:55:44 53° E 23:00:03 10° N
GPS 2-17 Rocket1 4.1 22:58:36 35° N 22:58:36 35° N 23:02:23 10° ENE
ATLAS 3B R/B 3.6 22:59:57 10° S 23:06:17 46° ESE 23:12:29 10° NE
Delta 2 Rocket 4.1 23:08:15 40° WNW 23:10:48 83° NNE 23:18:19 10° ESE
Cosmos 1634 Rocket 4.0 23:07:30 10° N 23:13:49 83° E 23:20:05 10° S
Cosmos 2263 4.4 23:13:42 43° W 23:14:24 45° WSW 23:19:41 10° S
Cosmos 2056 Rocket 3.9 23:15:32 40° WSW 23:15:32 40° WSW 23:20:05 10° S
Meteor 1-31 Rocket 3.0 23:12:09 10° NNE 23:16:03 69° E 23:19:57 10° S
Cosmos 1674 3.0 23:12:57 10° S 23:16:46 68° E 23:20:33 10° N
ALOS 2.1 23:16:40 10° N 23:21:17 70° WNW 23:25:55 10° SSW
Cosmos 1726 3.2 23:18:04 10° NNE 23:21:34 44° E 23:25:03 10° SSE
Landsat 5 3.6 23:19:57 10° S 23:24:08 52° WSW 23:25:57 29° NW
Cosmos 304 Rocket 3.6 23:26:28 10° NNW 23:31:13 70° WSW 23:35:59 10° S
Cosmos 1452 Rocket 3.6 23:27:10 10° N 23:32:26 77° ENE 23:37:41 10° SSE
Cosmos 1544 Rocket 3.6 23:30:40 10° N 23:35:07 84° E 23:39:35 10° S
GPS 2-04 Rocket1 2.6 23:33:39 28° NW 23:35:21 65° NE 23:38:47 10° ESE
CZ-4B R/B 3.3 23:32:35 10° NNE 23:36:40 69° ESE 23:40:58 10° S
ARIANE 5 DEB (SYLDA) 4.0 23:34:51 15° WSW 23:38:50 31° S 23:43:21 10° ESE
FALCON 9 DEB 3.1 23:38:07 36° WNW 23:38:58 48° SW 23:41:59 10° SSE
METEOR-M 4.2 23:36:14 10° N 23:41:24 53° WNW 23:46:34 10° SSW
Cosmos 1953 2.9 23:38:36 10° N 23:42:33 60° E 23:46:32 10° SSE
GOES 2 Rocket 4.5 23:39:31 21° W 23:43:37 50° NNW 23:51:29 10° NE
Cosmos 1656 Rocket 4.4 23:40:12 17° NW 23:43:44 31° WSW 23:48:37 10° SSW
Cosmos 1025 Rocket 4.1 23:40:24 10° SW 23:43:47 22° W 23:47:11 10° NNW
ADEOS Rocket 3.0 23:38:24 10° S 23:44:13 52° WSW 23:49:38 10° NNW
Atlas Centaur 2 3.3 23:45:01 11° SW 23:45:50 12° SW 23:47:20 10° S
Cosmos 1626 2.5 23:44:08 10° S 23:47:47 66° E 23:51:26 10° NNE
Meteor 2-5 Rocket 3.9 23:42:51 10° S 23:48:23 74° E 23:53:58 10° N
Cosmos 2369 Rocket 4.0 23:49:28 11° WSW 23:49:28 11° WSW 23:50:21 10° WSW
H-2A R/B 3.0 23:45:09 10° SSW 23:49:03 29° W 23:52:57 10° NW
FALCON 9 DEB 3.9 23:49:42 22° W 23:50:46 27° WSW 23:53:29 10° S
FALCON 9 DEB 3.9 23:52:27 20° W 23:53:49 28° SW 23:56:32 10° S
